Location: Bailleul
(50.3375°N, 2.8513°E)
Time: 03:52:01
(UTC+00:00)

Cosmos 1980 - Pass Details

Date: 28 October 2021
Orbit: 839 x 847 km, 71.0° (Epoch: 01 December)

Event Time Altitude Azimuth Distance (km) Brightness Sun altitude
Exits shadow 02:26:44 11° 359° (N) 2,392 6.3 -38.7°
Maximum altitude 02:29:18 14° 28° (NNE) 2,170 6.3 -38.4°
Drops below altitude 10° 02:32:19 10° 60° (ENE) 2,471 6.8 -37.9°
Sets 02:36:02 0° 84° (E) 3,405 7.7 -37.4°
